Search for airport 
image banner adimage banner ad
image banner ad

WBKU - Kuala Penyu

Located in , Malaysia

ICAO - WBKU, IATA -

Data provided by Airmate  

General information

Coordinates: N5°35'59" E115°34'28"
Elevation is 6 feet MSL.
 
Rated:
View ratings: [VIEW]


View others Airports in Sabah

Operational data

Open for public use
Current time UTC:
Current local time:
Weather at : WBKL - Labuan ( 49 km )
METAR: WBKL 122200Z 00000KT 9999 FEW015 26/25 Q1008
TAF: TAF WBKL 121700Z 1218/1318 VRB03KT 9999 FEW014 TEMPO 1304/1308 3000 TSRA FEW010 FEW015CB SCT030
View NOTAMs / SUP AIP / TFR affecting this airport [VIEW]
Communications frequencies: [VIEW]

Runways:

RWY identifierQFULength (ft)Width (ft)SurfaceLDA (ft)
0300
2100

Airport contact information

Address: Malaysia

Satellite view of WBKU